Weather History for Shenandoah, IA

Change the Weather History Date:

Wednesday, October 8, 2014

  Actual Average Record
Temperature  
Mean Temperature 56 °F -  
Max Temperature 69 °F 70 °F 91 °F (1949)
Min Temperature 42 °F 44 °F 21 °F (2000)
Degree Days  
Heating Degree Days 10    
Growing Degree Days 6 (Base 50)    
Moisture  
Dew Point 42 °F    
Average Humidity 61    
Maximum Humidity 93    
Minimum Humidity 28    
Precipitation  
Precipitation 0.00 in - - ()
Sea Level Pressure  
Sea Level Pressure 30.08 in    
Wind  
Wind Speed 3 mph (East)    
Max Wind Speed 9 mph    
Max Gust Speed 12 mph    
Visibility 10 miles    
Events Rain    
Averages and records for this station are not official NWS values.
T = Trace of Precipitation, MM = Missing Value Source: NWS Daily Summary

Daily Weather History Graph

Daily Weather History Graph

Search for Another Location

Airport:

Trip Planner

Search our weather history database for the weather conditions in past years. The results will help you decide how hot, cold, wet, or windy it might be!

Date:

Astronomy

Oct. 08, 2014 Rise Set
Actual Time 7:25 AM CDT 6:52 PM CDT
Civil Twilight 6:58 AM CDT 7:19 PM CDT
Nautical Twilight 6:26 AM CDT 7:51 PM CDT
Astronomical Twilight 5:54 AM CDT 8:23 PM CDT
Moon 7:07 PM CDT (10/8) 7:33 AM CDT (10/8)
Length of Visible Light 12h 21m
Length of Day
11h 26m
Full, 100% of the Moon is Illuminated
Oct 8
Full
Oct 15
Last Quarter
Oct 23
New
Oct 30
First Quarter
Nov 6
Full

Hourly Weather History & Observations

Time (CDT) Temp. Windchill Dew Point Humidity Pressure Visibility Wind Dir Wind Speed Gust Speed Precip Events Conditions
12:15 AM 51.8 °F - 46.4 °F 82% 30.02 in 10.0 mi WSW 4.6 mph - N/A   Mostly Cloudy
12:35 AM 50.0 °F - 46.4 °F 87% 30.02 in 10.0 mi Calm Calm - N/A   Partly Cloudy
12:55 AM 51.8 °F - 46.4 °F 82% 30.03 in 10.0 mi SSW 3.5 mph - N/A   Clear
1:15 AM 50.0 °F - 44.6 °F 82% 30.04 in 10.0 mi SW 4.6 mph - N/A   Partly Cloudy
1:35 AM 50.0 °F - 44.6 °F 82% 30.04 in 10.0 mi Calm Calm - N/A   Clear
1:55 AM 48.2 °F - 42.8 °F 82% 30.05 in 10.0 mi SW 4.6 mph - N/A   Clear
2:15 AM 50.0 °F - 42.8 °F 76% 30.05 in 10.0 mi Calm Calm - N/A   Clear
2:35 AM 51.8 °F - 42.8 °F 71% 30.06 in 10.0 mi Calm Calm - N/A   Clear
2:55 AM 53.6 °F - 41.0 °F 62% 30.06 in 10.0 mi Calm Calm - N/A   Partly Cloudy
3:15 AM 53.6 °F - 41.0 °F 62% 30.07 in 10.0 mi Calm Calm - N/A   Scattered Clouds
3:35 AM 50.0 °F - 41.0 °F 71% 30.06 in 10.0 mi Calm Calm - N/A   Clear
3:55 AM 51.8 °F - 39.2 °F 62% 30.07 in 10.0 mi Calm Calm - N/A   Partly Cloudy
4:15 AM 51.8 °F - 39.2 °F 62% 30.07 in 10.0 mi Calm Calm - N/A   Partly Cloudy
4:35 AM 46.4 °F 45.2 °F 41.0 °F 81% 30.08 in 10.0 mi NNW 3.5 mph - N/A   Clear
4:55 AM 44.6 °F - 41.0 °F 87% 30.09 in 10.0 mi Calm Calm - N/A   Clear
5:15 AM 46.4 °F 44.3 °F 42.8 °F 87% 30.09 in 10.0 mi North 4.6 mph - N/A   Clear
5:35 AM 44.6 °F 43.1 °F 41.0 °F 87% 30.10 in 10.0 mi NNE 3.5 mph - N/A   Clear
5:55 AM 44.6 °F 42.2 °F 39.2 °F 81% 30.10 in 10.0 mi North 4.6 mph - N/A   Clear
6:15 AM 42.8 °F 41.1 °F 39.2 °F 87% 30.11 in 10.0 mi SE 3.5 mph - N/A   Partly Cloudy
6:35 AM 42.8 °F - 41.0 °F 93% 30.12 in 10.0 mi Calm Calm - N/A   Mostly Cloudy
6:55 AM 42.8 °F - 41.0 °F 93% 30.13 in 10.0 mi Calm Calm - N/A   Mostly Cloudy
7:15 AM 42.8 °F - 41.0 °F 93% 30.14 in 10.0 mi Calm Calm - N/A   Clear
7:35 AM 42.8 °F - 41.0 °F 93% 30.13 in 10.0 mi Calm Calm - N/A   Mostly Cloudy
7:55 AM 44.6 °F - 42.8 °F 93% 30.14 in 10.0 mi Calm Calm - N/A   Mostly Cloudy
8:15 AM 44.6 °F - 42.8 °F 93% 30.14 in 10.0 mi Calm Calm - N/A   Partly Cloudy
8:35 AM 48.2 °F - 44.6 °F 87% 30.14 in 10.0 mi Calm Calm - N/A   Partly Cloudy
8:55 AM 50.0 °F - 41.0 °F 71% 30.15 in 10.0 mi Calm Calm - N/A   Clear
9:15 AM 51.8 °F - 42.8 °F 71% 30.15 in 10.0 mi Calm Calm - N/A   Clear
9:35 AM 53.6 °F - 42.8 °F 67% 30.15 in 10.0 mi Calm Calm - N/A   Clear
9:55 AM 57.2 °F - 41.0 °F 55% 30.15 in 10.0 mi Calm Calm - N/A   Clear
10:15 AM 57.2 °F - 41.0 °F 55% 30.14 in 10.0 mi Calm Calm - N/A   Clear
10:35 AM 59.0 °F - 42.8 °F 55% 30.15 in 10.0 mi Calm Calm - N/A   Clear
10:55 AM 60.8 °F - 42.8 °F 52% 30.15 in 10.0 mi Calm Calm - N/A   Clear
11:15 AM 62.6 °F - 41.0 °F 45% 30.15 in 10.0 mi East 4.6 mph - N/A   Clear
11:35 AM 62.6 °F - 39.2 °F 42% 30.14 in 10.0 mi Calm Calm - N/A   Clear
11:55 AM 66.2 °F - 35.6 °F 32% 30.14 in 10.0 mi East 6.9 mph - N/A   Clear
12:15 PM 66.2 °F - 35.6 °F 32% 30.13 in 10.0 mi East 5.8 mph - N/A   Clear
12:35 PM 66.2 °F - 35.6 °F 32% 30.13 in 10.0 mi East 6.9 mph - N/A   Clear
12:55 PM 68.0 °F - 33.8 °F 28% 30.12 in 10.0 mi ENE 8.1 mph - N/A   Clear
1:15 PM 68.0 °F - 35.6 °F 30% 30.11 in 10.0 mi ENE 5.8 mph - N/A   Clear
1:55 PM 68.0 °F - 33.8 °F 28% 30.11 in 10.0 mi SSE 6.9 mph - N/A   Clear
2:15 PM 68.0 °F - 33.8 °F 28% 30.09 in 10.0 mi SE 5.8 mph - N/A   Clear
2:35 PM 68.0 °F - 33.8 °F 28% 30.09 in 10.0 mi South 9.2 mph - N/A   Scattered Clouds
2:55 PM 68.0 °F - 35.6 °F 30% 30.08 in 10.0 mi SE 3.5 mph - N/A   Partly Cloudy
3:15 PM 68.0 °F - 35.6 °F 30% 30.07 in 10.0 mi ESE 4.6 mph - N/A   Clear
3:35 PM 68.0 °F - 37.4 °F 33% 30.07 in 10.0 mi ESE 6.9 mph - N/A   Clear
3:55 PM 69.8 °F - 37.4 °F 31% 30.06 in 10.0 mi SSE 6.9 mph - N/A   Clear
4:15 PM 68.0 °F - 39.2 °F 35% 30.05 in 10.0 mi Calm Calm - N/A   Clear
4:35 PM 68.0 °F - 37.4 °F 33% 30.05 in - SE 8.1 mph - N/A   Clear
4:55 PM 68.0 °F - 39.2 °F 35% 30.04 in 10.0 mi East 5.8 mph - N/A   Clear
5:15 PM 66.2 °F - 39.2 °F 37% 30.03 in 10.0 mi East 6.9 mph - N/A   Scattered Clouds
5:35 PM 64.4 °F - 46.4 °F 52% 30.03 in 10.0 mi East 5.8 mph - N/A   Scattered Clouds
5:55 PM 64.4 °F - 44.6 °F 49% 30.02 in 10.0 mi East 5.8 mph - N/A   Clear
6:15 PM 64.4 °F - 42.8 °F 45% 30.03 in 10.0 mi East 4.6 mph - N/A   Clear
6:35 PM 62.6 °F - 44.6 °F 52% 30.03 in 10.0 mi East 8.1 mph - N/A   Partly Cloudy
6:55 PM 62.6 °F - 44.6 °F 52% 30.04 in 10.0 mi East 5.8 mph - N/A   Scattered Clouds
7:15 PM 60.8 °F - 46.4 °F 59% 30.05 in 10.0 mi Calm Calm - N/A   Mostly Cloudy
7:35 PM 62.6 °F - 42.8 °F 48% 30.03 in 10.0 mi East 4.6 mph 11.5 mph N/A   Mostly Cloudy
7:55 PM 60.8 °F - 42.8 °F 52% 30.03 in 10.0 mi ESE 4.6 mph - N/A   Scattered Clouds
8:15 PM 60.8 °F - 42.8 °F 52% 30.04 in 10.0 mi Calm Calm - N/A   Scattered Clouds
8:35 PM 60.8 °F - 42.8 °F 52% 30.04 in 10.0 mi East 5.8 mph - N/A   Partly Cloudy
8:55 PM 59.0 °F - 44.6 °F 59% 30.04 in 10.0 mi NE 5.8 mph - N/A   Partly Cloudy
9:15 PM 57.2 °F - 44.6 °F 63% 30.04 in 10.0 mi NE 8.1 mph - N/A   Unknown
9:35 PM 57.2 °F - 44.6 °F 63% 30.05 in 10.0 mi ENE 6.9 mph - N/A   Unknown
9:55 PM 55.4 °F - 46.4 °F 72% 30.05 in 10.0 mi NE 6.9 mph - N/A   Mostly Cloudy
10:15 PM 57.2 °F - 46.4 °F 67% 30.06 in 10.0 mi NE 5.8 mph - N/A   Overcast
10:35 PM 57.2 °F - 46.4 °F 67% 30.05 in 10.0 mi NNE 5.8 mph - N/A   Overcast
10:55 PM 57.2 °F - 48.2 °F 72% 30.04 in 10.0 mi East 3.5 mph - N/A   Overcast
11:15 PM 57.2 °F - 46.4 °F 67% 30.04 in 10.0 mi Calm Calm - N/A   Overcast
11:35 PM 57.2 °F - 48.2 °F 72% 30.05 in 10.0 mi NE 4.6 mph - N/A Rain Heavy Rain
11:55 PM 57.2 °F - 46.4 °F 67% 30.04 in 10.0 mi NE 8.1 mph - N/A   Overcast